This is the latest recevied weather packets stored in our database for station/object W1MWS-13. If no packets are shown the sender has not sent any weather packets the latest 10 day(s).
| Time | Temp. | Humidity | Pressure | Rain* | Wind** | Luminosity | Snow |
|---|---|---|---|---|---|---|---|
| 1777468426 | 11.11° C | 84% | 1018.4 hPa | 0 mm | - | - | - |
| 1777466297 | 10.56° C | 85% | 1018.8 hPa | 0 mm | - | - | - |
| 1777460897 | 8.33° C | 89% | 1018.4 hPa | 0 mm | - | - | - |
| 1777459999 | 7.78° C | 89% | 1018.4 hPa | 0 mm | - | - | - |
| 1777458798 | 7.78° C | 89% | 1018.7 hPa | 0 mm | - | - | - |
| 1777458506 | 7.78° C | 89% | 1018.7 hPa | 0 mm | - | - | - |
| 1777457598 | 7.78° C | 89% | 1018.4 hPa | 0 mm | - | - | - |
| 1777457009 | 7.78° C | 89% | 1018.4 hPa | 0 mm | - | - | - |
| 1777455207 | 7.78° C | 88% | 1017.7 hPa | 0 mm | - | - | - |
| 1777453698 | 7.78° C | 86% | 1018.1 hPa | 0 mm | - | - | - |
| 1777449207 | 7.78° C | 83% | 1018.8 hPa | 0 mm | - | - | - |
| 1777447406 | 7.78° C | 83% | 1019.3 hPa | 0 mm | - | - | - |
| 1777446205 | - | - | 1019.9 hPa | 0 mm | - | - | - |
| 1777445297 | 7.78° C | 82% | 1019.9 hPa | 0 mm | - | - | - |
| 1777443509 | 7.78° C | 82% | 1019.9 hPa | 0 mm | - | - | - |
| 1777442296 | 7.78° C | 82% | 1019.9 hPa | 0 mm | - | - | - |
| 1777441412 | 7.78° C | 82% | 1019.8 hPa | 0 mm | - | - | - |
| 1777440509 | 7.78° C | 83% | 1019.6 hPa | 0 mm | - | - | - |
| 1777439309 | 7.22° C | 83% | 1019.4 hPa | 0 mm | - | - | - |
| 1777438400 | 7.22° C | 83% | 1019.8 hPa | 0 mm | - | - | - |
| 1777435999 | 7.22° C | 84% | 1019.4 hPa | 0 mm | - | - | - |
| 1777434502 | 7.22° C | 84% | 1020.2 hPa | 0 mm | - | - | - |
| 1777430599 | 7.22° C | 83% | 1020.6 hPa | 0 mm | - | - | - |
| 1777430296 | 7.22° C | 83% | 1020.6 hPa | 0 mm | - | - | - |
| 1777429095 | 7.22° C | 81% | 1020.8 hPa | 0 mm | - | - | - |
* Rain latest hour (hover to see other rain measurements)
** Current wind speed in m/s (hover to see current wind gust speed)